{"data":{"norad_id":59925,"intl_designator":"2024-106D","name":"STARLINK-31959","alt_names":[],"object_type":"PAYLOAD","status":"ACTIVE","operator":null,"country":"US","launch_date":"2024-06-01","launch_site_code":"AFETR","launch_vehicle":null,"mission":null,"orbit_class":"UNKNOWN","rcs_meters":null,"size_class":null,"mass_kg":null,"dimensions":null,"purposes":["comms"],"wikipedia_slug":null,"has_3d_model":false,"image_url":null,"decayed_at":null,"tle_current":{"epoch":"2026-05-24T17:12:14.510304Z","epoch_age_seconds":92907,"freshness":"FRESH","line1":"1 59925U 24106D   26144.71683461  .00002388  00000+0  96261-4 0  9994","line2":"2 59925  43.0016 259.3241 0001319 254.8204 105.2502 15.27581412112196","mean_motion":15.27581412,"eccentricity":0.0001319,"inclination_deg":43.0016,"raan_deg":259.3241,"arg_perigee_deg":254.8204,"mean_anomaly_deg":105.2502,"bstar":9.6261e-5,"rev_number":11219,"period_min":94.266661579409,"perigee_km":482.13987811856,"apogee_km":483.94985789533,"semimajor_km":6861.1818680069,"source":"CELESTRAK","updated_at":"2026-05-25T13:38:19.121952Z"}}}